Wind_Speed
97 92 89 87 79 76 77 73 76 74 70 69 69 68 68 67 65 65 67 67 70 72 73 73 74 74 74 75 77 77 79 80 82 83 82 83 85 89 91 96 99 101 103
97 94 90 88 86 85 82 82 80 82 79 78 75 73 72 73 75 73 72 73 74 75 77 77 78 77 77 78 79 80 82 83 84 84 84 83 88 94 96 99 99 103 108
99 96 93 91 89 86 85 85 86 85 84 83 81 80 79 80 79 78 77 77 77 78 79 79 79 80 80 81 82 84 84 85 86 89 91 91 92 94 98 99 103 107 111
106 102 98 95 94 91 88 86 84 85 86 87 85 84 83 82 82 82 81 80 80 80 81 82 83 84 83 83 83 85 87 90 91 93 95 97 97 97 96 100 106 111 119
110 108 105 100 96 94 91 88 87 85 86 85 85 85 85 84 85 84 84 84 84 83 83 83 83 83 83 84 86 87 88 90 94 96 98 99 101 101 103 106 109 117 121
109 114 108 105 101 98 96 94 91 90 88 87 87 87 86 87 86 85 84 83 83 83 84 85 84 85 87 87 89 90 93 95 97 98 99 100 101 104 109 111 117 120 115
103 106 113 110 107 105 101 97 96 94 93 91 90 90 89 89 90 90 89 88 86 87 86 86 87 88 91 93 94 95 95 95 94 95 98 102 106 109 113 119 119 118 109
104 101 107 110 114 109 106 103 100 98 96 95 93 91 91 90 89 90 89 90 90 88 89 90 91 91 92 93 92 92 92 94 97 100 104 107 111 114 120 118 117 108 101
109 107 101 102 108 109 110 109 107 106 102 100 98 96 95 94 92 91 90 91 91 91 91 90 89 91 93 93 94 95 97 100 103 106 109 113 115 118 117 112 105 99 93
112 111 109 105 101 101 105 111 111 108 106 104 102 100 98 97 96 94 93 93 93 93 92 93 94 94 95 97 99 101 103 105 108 110 112 113 115 112 105 102 99 94 87
118 118 111 105 103 101 101 101 103 110 109 109 107 105 102 101 99 98 99 99 99 98 98 98 99 100 102 102 103 107 109 111 112 111 112 113 109 102 98 99 94 87 79
116 118 116 108 104 104 103 102 100 100 104 110 111 110 108 106 105 104 104 104 103 103 103 103 105 104 105 105 108 107 110 111 109 110 109 104 97 95 97 94 86 80 73
105 107 107 106 104 102 102 102 103 101 100 101 103 105 107 107 109 109 109 107 107 106 106 105 105 105 105 105 105 106 106 105 105 102 97 92 92 94 93 86 79 73 69
100 99 94 93 94 94 94 92 92 92 94 95 96 97 100 102 103 104 106 107 106 105 106 105 104 103 104 104 102 101 102 100 96 88 87 89 93 93 84 77 71 68 63
93 92 91 88 88 85 88 89 86 86 89 91 92 92 91 94 96 96 96 97 99 99 101 101 102 101 100 99 103 100 95 87 86 85 86 92 92 83 74 69 67 61 56
85 83 82 80 80 77 79 85 86 87 89 88 87 88 87 87 91 92 92 93 96 98 99 102 101 100 98 97 91 83 78 85 81 84 89 92 81 74 67 66 60 57 57
76 76 77 78 76 75 75 75 77 79 82 83 84 87 90 93 97 96 95 95 93 93 92 92 89 89 84 78 72 75 81 80 83 88 91 79 72 66 64 60 57 58 58
70 71 72 73 75 74 73 72 72 73 75 76 78 80 82 87 89 89 88 87 86 82 81 80 75 73 69 70 74 82 82 83 88 82 76 69 63 62 59 57 57 57 58
56 61 64 68 70 70 69 70 69 69 69 71 73 75 76 77 78 79 80 79 77 73 67 65 70 69 72 78 81 83 81 78 73 70 66 63 60 59 58 58 57 58 60
49 52 56 60 63 66 66 67 67 66 65 66 67 68 67 68 68 67 65 65 64 64 66 72 75 78 75 69 69 72 67 66 63 63 63 60 59 58 58 58 59 60 59
46 47 51 53 55 58 60 62 63 63 63 62 62 62 62 62 62 63 66 67 68 73 73 76 71 68 66 64 63 61 58 59 61 62 60 57 57 56 58 59 57 56 58
40 42 43 46 49 51 53 56 56 57 56 57 58 60 61 64 65 65 65 68 72 72 61 57 57 57 57 55 54 55 58 57 59 58 55 54 54 56 56 54 54 56 60
40 41 42 41 41 41 44 46 48 51 53 55 56 58 59 60 58 57 53 50 49 48 49 51 50 49 49 52 53 54 54 54 54 51 53 53 53 52 52 53 57 60 63
38 39 40 39 41 42 41 41 42 43 45 46 45 45 45 42 41 40 40 44 44 45 46 46 45 48 46 45 47 48 48 47 47 49 49 48 49 52 55 59 61 64 66
39 39 40 41 39 38 37 37 37 37 36 36 35 34 35 35 37 39 40 41 41 42 44 44 44 42 41 42 41 40 41 42 42 43 45 49 52 56 59 61 64 67 70
38 38 38 39 40 39 36 35 35 35 33 32 32 33 35 35 37 38 37 39 40 40 42 43 42 40 39 39 39 38 39 40 43 46 51 54 57 60 62 65 68 71 73
Wind_Direction
223 227 230 232 233 235 237 238 237 242 244 249 251 253 255 257 258 263 266 268 270 276 279 280 281 283 286 289 292 293 294 295 297 299 300 300 301 301 304 305 307 309 310
225 226 228 232 235 236 238 239 239 241 244 248 251 253 256 259 261 264 268 270 273 274 276 278 281 284 286 289 290 291 293 296 297 298 299 298 301 302 304 307 308 309 309
226 227 229 231 233 236 240 242 243 244 246 247 249 252 255 258 261 265 267 269 271 274 276 279 282 284 286 288 290 292 293 294 296 297 297 298 299 302 306 308 308 308 309
225 227 227 229 233 234 237 241 244 246 248 250 252 254 256 258 261 263 267 270 272 274 277 280 283 284 287 289 291 292 293 294 295 296 298 300 302 304 305 306 307 308 310
225 228 229 230 232 234 237 239 242 244 246 249 252 254 257 259 262 264 266 269 272 275 277 280 282 283 285 286 287 289 290 293 294 297 299 302 304 305 304 304 306 309 310
225 227 230 231 232 235 236 239 241 243 246 249 251 253 255 257 259 261 264 267 270 272 273 274 277 280 282 285 286 289 290 294 296 298 300 302 302 302 303 305 307 309 310
233 229 230 232 234 235 237 239 241 244 246 248 250 252 254 257 259 262 264 267 269 271 274 277 278 281 283 285 287 290 292 294 296 298 298 299 299 301 303 306 308 309 309
240 237 233 233 233 235 238 240 242 244 246 248 250 253 255 257 260 263 265 267 270 272 274 277 280 282 284 286 288 290 291 293 294 295 297 299 301 302 305 307 307 308 308
242 243 242 239 237 237 238 240 241 243 245 247 249 251 254 256 258 261 263 265 267 270 273 276 279 281 283 286 288 290 292 294 295 297 299 301 303 305 306 307 307 307 307
243 245 245 244 243 242 242 242 244 246 248 250 251 252 255 257 259 261 263 266 268 270 272 274 278 281 284 286 288 290 292 293 296 298 300 301 303 304 305 305 307 307 307
242 246 249 248 248 248 248 247 247 247 248 250 252 254 257 259 260 262 264 266 268 271 273 276 279 280 283 285 288 289 291 293 296 298 300 302 302 303 304 306 307 306 306
244 246 249 252 251 251 252 253 252 250 250 250 252 254 257 259 261 263 265 267 269 271 274 276 278 281 283 286 288 290 292 293 295 297 299 300 302 302 304 305 305 304 304
246 247 249 251 252 253 254 254 255 255 254 253 254 255 257 259 261 262 264 267 269 271 274 277 279 281 284 287 288 290 292 294 296 297 298 299 302 303 304 303 303 303 304
247 251 252 252 252 252 253 253 254 255 256 256 256 257 259 260 261 263 265 267 269 272 274 277 280 283 285 286 289 290 293 294 295 296 296 298 302 302 302 302 303 303 304
247 249 251 250 250 251 252 255 255 256 256 257 257 258 259 260 262 264 265 268 269 272 275 277 280 283 285 287 288 291 291 292 295 295 294 298 301 299 301 302 302 304 303
247 248 249 250 251 252 253 254 255 256 259 258 258 259 260 262 265 266 268 271 273 274 277 278 279 281 285 286 287 287 287 292 292 290 295 299 297 298 300 300 299 298 300
245 248 251 252 252 252 252 253 254 255 255 257 257 259 261 264 266 268 270 272 274 277 278 279 279 281 283 284 283 284 290 290 288 291 296 294 295 298 299 297 296 298 300
244 246 247 249 252 253 254 254 254 255 255 257 258 260 262 263 264 266 269 270 273 276 276 278 279 281 281 279 279 284 288 287 289 292 291 292 296 298 296 295 296 301 303
242 242 242 245 247 250 251 252 254 255 256 256 256 258 260 262 264 265 267 269 270 274 277 277 283 279 276 279 283 285 286 287 288 288 289 293 296 295 294 296 298 301 302
244 242 241 241 243 244 247 249 252 255 256 256 258 260 263 264 266 270 271 274 274 277 273 273 279 279 282 283 285 285 285 285 286 288 291 293 293 292 294 296 298 302 304
245 244 243 243 244 245 247 248 250 252 255 257 259 260 261 263 264 265 269 271 270 274 275 277 278 280 280 282 283 283 283 285 287 288 291 291 291 291 294 297 300 301 302
250 248 248 249 248 248 250 251 251 252 253 254 256 258 260 263 265 268 270 269 270 273 272 273 276 279 281 282 282 282 283 284 286 288 289 289 290 293 296 298 300 300 302
251 252 252 250 250 251 252 252 253 253 254 255 256 258 262 264 263 264 264 263 264 270 273 275 279 281 282 283 283 283 283 285 288 285 285 289 293 294 296 298 301 303 304
251 253 256 255 254 251 252 252 252 252 252 253 253 254 256 255 254 256 260 266 267 272 276 280 282 284 283 284 286 284 282 282 283 286 290 291 294 296 298 301 303 302 304
250 250 251 252 252 254 251 252 251 247 246 246 245 244 247 251 255 259 260 265 270 275 279 284 288 287 284 285 287 286 284 284 287 289 292 294 296 298 300 302 302 303 304
246 249 252 249 247 249 251 247 243 239 236 238 243 250 253 254 256 258 260 265 269 277 284 291 290 287 285 284 284 285 288 289 290 292 294 297 298 300 302 301 303 304 306
Height
10708 10720 10731 10741 10749 10755 10762 10769 10774 10778 10782 10787 10791 10795 10798 10801 10801 10804 10806 10809 10810 10810 10808 10807 10805 10805 10804 10801 10798 10796 10791 10787 10783 10781 10775 10770 10764 10755 10749 10740 10731 10720 10712
10703 10713 10721 10730 10737 10742 10748 10754 10761 10765 10770 10774 10779 10784 10787 10789 10790 10793 10796 10797 10799 10799 10797 10795 10794 10794 10792 10788 10784 10780 10777 10773 10767 10765 10764 10759 10748 10738 10734 10725 10714 10704 10693
10691 10701 10708 10715 10722 10730 10736 10743 10749 10754 10759 10764 10768 10772 10775 10777 10779 10782 10784 10785 10786 10786 10785 10784 10782 10780 10778 10774 10770 10767 10762 10759 10753 10747 10744 10744 10740 10730 10716 10707 10696 10686 10675
10673 10681 10691 10698 10704 10713 10720 10728 10735 10742 10747 10751 10755 10759 10762 10765 10767 10769 10771 10773 10773 10772 10772 10770 10768 10765 10764 10761 10757 10752 10747 10743 10739 10733 10727 10722 10718 10714 10710 10695 10681 10670 10658
10655 10664 10674 10685 10692 10699 10706 10713 10720 10726 10731 10737 10742 10746 10750 10752 10754 10756 10758 10759 10760 10760 10759 10758 10756 10753 10751 10749 10745 10741 10735 10729 10723 10717 10710 10703 10696 10689 10686 10681 10668 10655 10638
10639 10648 10661 10671 10678 10684 10690 10698 10705 10711 10716 10722 10727 10732 10736 10739 10741 10742 10743 10744 10746 10746 10745 10744 10743 10740 10738 10735 10731 10727 10721 10715 10707 10700 10694 10687 10680 10672 10666 10659 10649 10633 10619
10622 10635 10646 10654 10662 10670 10678 10685 10692 10698 10703 10708 10712 10717 10721 10724 10727 10729 10729 10730 10731 10730 10729 10728 10726 10725 10722 10719 10716 10712 10707 10701 10693 10687 10679 10672 10664 10657 10647 10638 10629 10616 10601
10603 10618 10628 10635 10644 10653 10662 10669 10676 10682 10688 10693 10698 10703 10706 10710 10712 10714 10715 10715 10715 10714 10714 10712 10710 10709 10705 10702 10699 10696 10691 10685 10678 10670 10662 10653 10644 10634 10626 10617 10608 10596 10583
10585 10594 10606 10619 10629 10639 10648 10653 10657 10663 10670 10677 10682 10687 10691 10694 10697 10699 10700 10700 10700 10699 10699 10698 10695 10691 10688 10685 10680 10675 10670 10664 10656 10648 10640 10631 10622 10612 10604 10594 10585 10575 10564
10567 10573 10583 10596 10610 10623 10631 10638 10644 10651 10657 10663 10668 10672 10676 10679 10681 10683 10685 10685 10685 10684 10683 10680 10678 10675 10671 10666 10662 10655 10650 10643 10636 10629 10620 10611 10602 10592 10583 10573 10564 10554 10544
10550 10555 10565 10581 10593 10602 10611 10618 10625 10632 10638 10644 10649 10654 10658 10661 10663 10665 10666 10666 10666 10666 10665 10663 10661 10658 10654 10649 10644 10637 10631 10625 10618 10610 10601 10592 10583 10573 10564 10554 10544 10534 10526
10533 10541 10549 10558 10570 10580 10588 10596 10605 10612 10618 10623 10628 10633 10637 10641 10644 10646 10647 10647 10647 10647 10646 10645 10642 10639 10635 10631 10626 10619 10613 10607 10598 10591 10582 10573 10564 10556 10546 10536 10527 10518 10511
10517 10524 10533 10543 10553 10560 10567 10575 10582 10588 10595 10601 10607 10612 10616 10621 10623 10626 10628 10628 10629 10629 10627 10625 10623 10619 10616 10611 10605 10600 10594 10586 10580 10573 10564 10555 10547 10538 10528 10519 10510 10503 10497
10499 10508 10515 10522 10531 10539 10548 10555 10563 10567 10572 10578 10586 10592 10596 10600 10602 10606 10608 10610 10609 10609 10607 10606 10602 10600 10596 10591 10586 10580 10574 10567 10560 10552 10544 10538 10529 10520 10511 10502 10495 10488 10482
10482 10491 10498 10505 10513 10519 10526 10534 10540 10547 10552 10558 10565 10570 10575 10578 10582 10585 10586 10586 10588 10589 10586 10585 10582 10580 10576 10571 10566 10561 10555 10547 10541 10534 10528 10521 10512 10503 10495 10487 10480 10473 10469
10467 10473 10479 10486 10493 10499 10506 10515 10522 10528 10533 10537 10542 10548 10553 10557 10561 10562 10565 10566 10568 10566 10566 10565 10562 10559 10556 10551 10547 10541 10535 10530 10524 10518 10512 10504 10495 10488 10480 10474 10468 10463 10458
10452 10456 10461 10467 10475 10482 10491 10498 10503 10509 10514 10519 10524 10529 10533 10536 10539 10541 10543 10546 10546 10546 10544 10543 10541 10538 10535 10531 10528 10523 10518 10512 10507 10500 10493 10486 10479 10473 10466 10460 10455 10450 10444
10437 10443 10448 10454 10461 10467 10474 10480 10486 10491 10497 10501 10506 10510 10513 10517 10519 10522 10524 10526 10527 10526 10525 10524 10522 10519 10516 10514 10510 10506 10500 10495 10489 10482 10475 10469 10464 10458 10452 10447 10442 10436 10430
10423 10429 10436 10441 10447 10452 10458 10463 10469 10475 10481 10484 10488 10491 10495 10498 10501 10504 10506 10508 10508 10508 10507 10505 10503 10501 10499 10497 10493 10487 10482 10477 10471 10465 10459 10455 10449 10444 10440 10434 10428 10422 10416
10411 10417 10422 10428 10433 10439 10444 10450 10455 10460 10465 10468 10471 10474 10478 10481 10484 10486 10487 10488 10489 10490 10490 10488 10486 10484 10482 10476 10474 10470 10463 10459 10455 10450 10445 10440 10436 10432 10426 10421 10415 10409 10403
10403 10406 10410 10415 10421 10425 10430 10435 10440 10445 10449 10454 10458 10461 10463 10466 10469 10470 10471 10473 10475 10475 10473 10470 10467 10467 10463 10460 10456 10452 10448 10444 10439 10435 10431 10427 10423 10417 10412 10407 10401 10396 10390
10394 10398 10401 10405 10410 10413 10418 10422 10427 10431 10435 10439 10442 10446 10449 10451 10454 10455 10456 10458 10458 10457 10455 10453 10452 10449 10446 10443 10440 10436 10433 10429 10425 10422 10418 10414 10409 10404 10399 10393 10388 10382 10376
10385 10388 10392 10396 10399 10403 10407 10410 10414 10418 10422 10425 10429 10432 10435 10437 10438 10440 10440 10441 10442 10442 10441 10439 10437 10434 10432 10429 10425 10421 10418 10416 10412 10408 10405 10401 10396 10391 10385 10380 10374 10368 10360
10376 10379 10382 10386 10389 10393 10396 10399 10402 10406 10409 10412 10416 10419 10422 10424 10426 10427 10428 10430 10430 10429 10427 10425 10423 10421 10417 10415 10411 10408 10405 10402 10399 10395 10392 10387 10382 10377 10371 10366 10360 10352 10344
10365 10368 10372 10375 10379 10382 10385 10388 10391 10394 10397 10401 10404 10408 10410 10412 10414 10416 10417 10418 10417 10416 10414 10413 10411 10408 10405 10403 10399 10396 10393 10390 10387 10383 10379 10374 10369 10364 10359 10352 10345 10337 10328
10354 10358 10361 10364 10367 10371 10375 10378 10381 10384 10388 10392 10395 10398 10400 10402 10404 10406 10406 10407 10406 10405 10403 10401 10398 10396 10393 10391 10388 10386 10382 10379 10375 10372 10367 10362 10356 10351 10344 10335 10328 10320 10311